N7QMJ Weather Reports


Display with metric or nautical units.
time (UTC)temp
F
wind
direction
speed
MPH
gust
MPH
rain 1hr
in
rain 24hr
in
rain mn
in
humidity
%
barometer
mb
20190117065537 0 130 5.0 15.0 0.07 0.86 0.86 1007.0
20190117065037 0 164 5.0 11.0 0.08 0.86 0.86 1007.1
20190117064538 0 162 6.0 11.0 0.08 0.86 0.86 1007.1
20190117064037 0 137 5.0 9.0 0.09 0.86 0.86 1007.0
20190117063538 40 168 6.0 15.0 0.09 0.86 0.86 91 1007.0
20190117063038 40 149 6.0 16.0 0.09 0.86 0.86 91 1007.0
20190117062538 40 131 9.0 16.0 0.09 0.84 0.84 91 1006.7
20190117062037 39 152 10.0 14.0 0.10 0.83 0.83 91 1006.7
20190117061535 40 189 6.0 18.0 0.09 0.82 0.82 91 1007.0
20190117061037 40 135 10.0 21.0 0.09 0.81 0.81 91 1006.7
20190117060537 39 162 9.0 21.0 0.08 0.80 0.80 91 1006.6
20190117060036 39 149 10.0 17.0 0.06 0.79 0.79 91 1006.7
20190117055535 39 117 11.0 15.0 0.06 0.79 0.79 91 1006.5
20190117055036 39 113 6.0 13.0 0.06 0.78 0.78 90 1006.6
20190117054535 39 0.0 0.0 0.06 0.78 0.78 90 1006.6
20190117054036 39 120 8.0 15.0 0.05 0.77 0.77 90 1006.4
20190117053535 39 120 8.0 15.0 0.05 0.77 0.77 91 1006.2
20190117053035 39 169 6.0 9.0 0.04 0.76 0.76 90 1006.3
20190117052534 39 275 2.0 5.0 0.03 0.76 0.76 90 1006.7
20190117052036 39 210 2.0 7.0 0.00 0.72 0.72 90 1006.7
20190117051535 0 200 3.0 12.0 0.00 0.72 0.72 1006.7
20190117051034 39 107 6.0 12.0 0.00 0.72 0.72 90 1006.8
20190117050535 39 135 6.0 14.0 0.00 0.72 0.72 90 1007.0
20190117050034 0 162 7.0 14.0 0.00 0.72 0.72 1007.1
20190117045535 39 131 7.0 12.0 0.00 0.72 0.72 90 1007.0
20190117045036 39 202 3.0 11.0 0.01 0.72 0.72 90 1006.8
20190117044536 39 65 3.0 11.0 0.01 0.72 0.72 90 1006.6
20190117044035 38 0 2.0 6.0 0.01 0.72 0.72 90 1006.8
20190117043536 39 336 3.0 4.0 0.01 0.72 0.72 90 1006.8
20190117043035 39 303 1.0 4.0 0.01 0.72 0.72 90 1007.0
20190117042533 39 348 1.0 9.0 0.01 0.72 0.72 90 1007.1
20190117042034 39 0 4.0 9.0 0.01 0.72 0.72 90 1007.3
20190117041533 39 0 6.0 10.0 0.01 0.72 0.72 90 1007.3
20190117041035 39 357 8.0 10.0 0.01 0.72 0.72 90 1007.4
20190117040533 38 24 4.0 7.0 0.01 0.72 0.72 90 1007.3
20190117040033 38 0.0 0.0 0.01 0.72 0.72 90 1007.7
20190117035534 38 0.0 0.0 0.01 0.72 0.72 90 1008.0
20190117035034 0 0.0 0.0 0.00 0.72 0.72 1007.9
20190117034533 0 0.0 0.0 0.01 0.72 0.72 1007.7
20190117034032 0 0.0 0.0 0.01 0.72 0.72 1007.8
20190117033531 0 0.0 0.0 0.01 0.72 0.72 1007.9
20190117033031 0 0.0 0.0 0.01 0.72 0.72 1008.0
20190117032539 39 14 7.0 12.0 0.01 0.72 0.72 88 1007.9
20190117032530 39 14 7.0 12.0 0.01 0.72 0.72 88 1007.8
20190117031526 40 24 5.0 12.0 0.01 0.72 0.72 88 1008.1
20190117031027 40 134 7.0 16.0 0.02 0.72 0.72 90 1008.1
20190117030529 38 223 6.0 16.0 0.02 0.72 0.72 90 1007.9
20190117030026 38 7 5.0 7.0 0.02 0.72 0.72 90 1007.9
20190117025527 38 42 6.0 7.0 0.03 0.72 0.72 90 1008.5
20190117025025 38 14 4.0 11.0 0.03 0.72 0.72 90 1008.4
20190117024525 38 14 6.0 11.0 0.03 0.71 0.71 90 1008.4
20190117024026 38 23 7.0 10.0 0.03 0.71 0.71 90 1008.1
20190117023526 38 51 5.0 10.0 0.04 0.71 0.71 90 1008.4
20190117023026 38 354 5.0 7.0 0.04 0.71 0.71 90 1008.7
20190117022525 38 345 4.0 9.0 0.05 0.71 0.71 90 1008.8
20190117022027 38 14 4.0 9.0 0.06 0.71 0.71 90 1008.8
20190117021023 38 358 4.0 6.0 0.06 0.70 0.70 89 1008.9
20190117020526 39 0 6.0 6.0 0.06 0.70 0.70 88 1008.8
20190117020024 39 323 3.0 5.0 0.06 0.70 0.70 88 1009.2
20190117015526 39 8 3.0 5.0 0.06 0.69 0.69 88 1009.3
20190117015025 39 130 1.0 3.0 0.06 0.69 0.69 88 1009.2
20190117014524 39 123 1.0 3.0 0.06 0.68 0.69 88 1009.3
20190117014026 39 123 2.0 5.0 0.06 0.68 0.68 87 1009.2
20190117013523 39 96 4.0 5.0 0.05 0.67 0.67 87 1009.4
20190117013023 40 200 3.0 5.0 0.06 0.67 0.67 86 1009.5
20190117012523 40 138 1.0 6.0 0.06 0.66 0.66 86 1009.4
20190117012023 40 117 2.0 12.0 0.06 0.65 0.65 85 1009.4
20190117011523 40 161 3.0 12.0 0.06 0.65 0.65 85 1009.6
20190117011025 40 147 5.0 7.0 0.06 0.65 0.65 84 1009.4
20190117010524 40 200 3.0 9.0 0.06 0.64 0.64 84 1009.5
20190117010022 40 151 6.0 14.0 0.06 0.64 0.64 83 1009.8
20190117005526 41 147 8.0 16.0 0.06 0.63 0.63 83 1009.5
20190117005023 41 135 9.0 16.0 0.05 0.62 0.62 82 1009.5
20190117004523 41 140 7.0 10.0 0.05 0.62 0.62 82 1009.6
20190117004023 41 0.0 0.0 0.05 0.62 0.62 81 1009.9
20190117003523 41 137 8.0 13.0 0.05 0.62 0.62 81 1009.9
20190117003023 42 137 8.0 16.0 0.04 0.61 0.61 80 1009.9
20190117002523 42 142 12.0 17.0 0.03 0.61 0.61 77 1010.0
20190117002023 43 141 9.0 17.0 0.02 0.60 0.60 76 1010.2
20190117001523 43 142 9.0 13.0 0.02 0.59 0.59 75 1010.1
20190117001021 44 137 6.0 9.0 0.01 0.58 0.58 73 1010.1
20190117000523 44 135 5.0 9.0 0.00 0.57 0.57 71 1010.2
20190117000021 44 179 5.0 6.0 0.00 0.57 0.57 70 1009.9
20190116235524 45 157 2.0 4.0 0.00 0.57 0.57 68 1009.9
20190116235021 45 266 1.0 4.0 0.00 0.57 0.57 67 1010.0
20190116234521 45 266 1.0 5.0 0.00 0.57 0.57 67 1010.0
20190116234021 46 266 4.0 5.0 0.00 0.57 0.57 65 1010.0
20190116233522 46 169 1.0 10.0 0.00 0.57 0.57 65 1010.0
20190116233023 46 158 3.0 10.0 0.00 0.57 0.57 66 1010.1
20190116232521 46 173 4.0 6.0 0.00 0.57 0.57 67 1010.2
20190116232022 46 209 2.0 11.0 0.00 0.57 0.57 66 1009.9
20190116231520 46 59 4.0 15.0 0.00 0.57 0.57 66 1010.1
20190116231022 46 168 4.0 15.0 0.00 0.57 0.57 67 1010.1
20190116230521 46 276 3.0 9.0 0.00 0.57 0.57 65 1010.5
20190116230021 46 252 3.0 6.0 0.00 0.57 0.57 61 1010.6
20190116225522 47 269 4.0 9.0 0.00 0.57 0.57 61 1010.5
20190116225020 47 0 3.0 9.0 0.00 0.57 0.57 60 1010.5
20190116224520 47 140 0.0 2.0 0.00 0.57 0.57 60 1010.2
20190116224021 47 0.0 0.0 0.00 0.57 0.57 61 1010.0
20190116223520 47 210 10.0 18.0 0.00 0.57 0.57 60 1010.2
20190116223022 47 210 10.0 19.0 0.00 0.57 0.57 59 1010.1
20190116222521 47 0 12.0 19.0 0.00 0.57 0.57 59 1010.0
20190116222019 48 159 12.0 19.0 0.00 0.57 0.57 58 1010.1
20190116221520 47 165 9.0 23.0 0.00 0.57 0.57 59 1010.2
20190116221020 47 0 14.0 23.0 0.00 0.58 0.57 59 1010.3
20190116220517 48 0 11.0 19.0 0.00 0.58 0.57 57 1010.6
20190116220018 48 142 12.0 27.0 0.00 0.58 0.57 56 1010.5
20190116215518 49 142 11.0 27.0 0.00 0.58 0.57 54 1010.3
20190116215019 51 148 5.0 10.0 0.00 0.58 0.57 52 1010.5
20190116214519 51 0 6.0 10.0 0.00 0.58 0.57 55 1010.5
20190116214018 50 149 6.0 13.0 0.00 0.58 0.57 58 1010.3
20190116213518 48 140 9.0 13.0 0.00 0.58 0.57 57 1010.2
20190116213019 49 202 5.0 18.0 0.01 0.58 0.57 58 1010.3
20190116212519 48 0 11.0 18.0 0.02 0.58 0.57 57 1010.5
20190116212018 47 0 11.0 18.0 0.02 0.58 0.57 58 1010.6
20190116211516 47 0 10.0 29.0 0.02 0.58 0.57 58 1010.8
20190116211019 46 212 7.0 29.0 0.02 0.58 0.57 59 1010.7
20190116210517 46 152 17.0 24.0 0.03 0.58 0.57 59 1010.8
20190116210017 46 159 11.0 29.0 0.03 0.58 0.57 59 1011.2
20190116205517 46 186 12.0 29.0 0.04 0.58 0.57 58 1010.9
20190116205017 46 147 11.0 21.0 0.05 0.58 0.57 57 1011.3
20190116204516 47 140 12.0 20.0 0.05 0.58 0.57 57 1011.5
20190116204017 47 141 10.0 21.0 0.06 0.58 0.57 57 1011.4
20190116203517 47 149 11.0 21.0 0.06 0.58 0.57 57 1011.6
20190116203017 47 107 9.0 16.0 0.07 0.57 0.57 58 1011.6
20190116202518 47 217 6.0 16.0 0.06 0.57 0.57 58 1011.6
20190116202017 47 0 8.0 16.0 0.06 0.57 0.56 56 1011.6
20190116201517 48 217 10.0 16.0 0.07 0.57 0.56 58 1011.7
20190116201015 47 0 3.0 10.0 0.07 0.56 0.55 58 1011.7
20190116200516 47 175 6.0 10.0 0.07 0.55 0.54 58 1011.9
20190116200016 47 161 6.0 12.0 0.08 0.55 0.54 59 1011.9
20190116195515 46 134 5.0 12.0 0.08 0.54 0.54 59 1012.0
20190116195015 46 151 8.0 18.0 0.09 0.54 0.53 63 1012.0
20190116194516 46 0 9.0 18.0 0.09 0.54 0.53 61 1012.2
20190116194016 46 0 6.0 13.0 0.09 0.53 0.52 62 1012.1
20190116193514 46 0 9.0 13.0 0.09 0.52 0.51 64 1012.1
20190116193015 45 141 11.0 16.0 0.09 0.50 0.50 65 1012.2
20190116192516 45 161 10.0 16.0 0.10 0.50 0.50 65 1012.3
20190116192017 45 0 10.0 21.0 0.11 0.50 0.50 65 1012.4
20190116191515 45 135 9.0 21.0 0.12 0.50 0.49 66 1012.7
20190116191014 44 183 10.0 15.0 0.12 0.49 0.48 65 1012.7
20190116190515 45 141 10.0 22.0 0.12 0.48 0.47 66 1012.8
20190116190015 45 152 10.0 22.0 0.13 0.47 0.46 68 1012.9
20190116185514 45 188 8.0 12.0 0.13 0.46 0.46 67 1012.9
20190116185018 45 210 5.0 7.0 0.12 0.45 0.44 70 1012.9
20190116184516 44 145 3.0 9.0 0.13 0.44 0.43 69 1012.9
20190116184012 44 137 3.0 9.0 0.13 0.43 0.43 71 1013.0
20190116183513 44 158 4.0 13.0 0.14 0.43 0.42 72 1012.9
20190116183013 44 162 7.0 13.0 0.13 0.41 0.40 69 1013.0
20190116182513 45 0 11.0 13.0 0.12 0.40 0.39 71 1012.8
20190116182012 45 0 5.0 7.0 0.13 0.39 0.39 74 1012.8
20190116181513 45 0 5.0 6.0 0.11 0.38 0.37 75 1012.7
20190116181012 45 0 0.0 5.0 0.12 0.37 0.36 81 1012.7
20190116180513 44 0 4.0 5.0 0.11 0.36 0.35 78 1012.7
20190116180013 43 0 3.0 4.0 0.10 0.35 0.34 83 1012.7
20190116175513 44 0 1.0 2.0 0.09 0.33 0.33 89 1012.8
20190116175013 42 0 1.0 2.0 0.09 0.33 0.32 88 1012.8
20190116174513 41 0 1.0 5.0 0.08 0.31 0.31 91 1012.7
20190116174012 39 0 2.0 5.0 0.08 0.31 0.31 88 1012.7
20190116173511 39 0 4.0 5.0 0.06 0.28 0.28 90 1012.7
20190116173012 39 0 4.0 5.0 0.06 0.28 0.28 91 1012.4
20190116172512 39 0 3.0 4.0 0.06 0.28 0.28 91 1012.6
20190116172013 39 326 1.0 4.0 0.06 0.27 0.27 92 1012.7
20190116171512 39 307 2.0 3.0 0.06 0.27 0.26 94 1012.4
20190116171013 38 0 3.0 3.0 0.04 0.25 0.24 93 1012.4
20190116170510 37 307 1.0 3.0 0.05 0.25 0.24 93 1012.4
20190116170010 37 307 2.0 4.0 0.04 0.24 0.24 92 1012.4
20190116165511 37 305 3.0 5.0 0.03 0.24 0.23 93 1012.4
20190116165010 36 296 4.0 5.0 0.04 0.24 0.23 92 1012.3
20190116164511 37 309 2.0 3.0 0.04 0.24 0.23 93 1012.2
20190116164010 36 309 1.0 3.0 0.03 0.23 0.22 93 1012.4
20190116163509 36 309 2.0 4.0 0.04 0.23 0.22 93 1012.3
20190116163009 36 306 0.0 4.0 0.03 0.22 0.21 93 1012.3
20190116162509 36 296 3.0 4.0 0.03 0.22 0.21 93 1012.3
20190116162009 36 320 2.0 3.0 0.02 0.21 0.20 92 1012.4
20190116161512 36 320 2.0 3.0 0.02 0.21 0.20 93 1012.3
20190116161010 36 320 0.0 2.0 0.02 0.21 0.20 92 1012.3
20190116160510 35 320 0.0 2.0 0.02 0.20 0.20 92 1012.3
20190116160010 35 320 1.0 3.0 0.02 0.20 0.20 92 1012.3
20190116155511 35 320 1.0 3.0 0.02 0.20 0.20 92 1012.3
20190116155011 35 320 0.0 2.0 0.02 0.20 0.19 92 1012.4
20190116154510 35 320 1.0 2.0 0.02 0.20 0.19 92 1012.6
20190116154009 35 320 0.0 2.0 0.02 0.20 0.19 92 1012.4
20190116153509 35 320 1.0 4.0 0.02 0.19 0.18 91 1012.4
20190116153008 35 319 0.0 4.0 0.02 0.19 0.18 91 1012.3
20190116152509 35 296 2.0 4.0 0.02 0.19 0.18 91 1012.3
20190116152009 35 289 4.0 5.0 0.02 0.19 0.18 91 1012.3
20190116151509 35 320 4.0 5.0 0.02 0.19 0.18 91 1012.2
20190116151007 35 317 2.0 4.0 0.02 0.19 0.18 91 1012.0
20190116150507 35 329 3.0 4.0 0.02 0.18 0.17 91 1012.0
20190116150007 35 41 0.0 5.0 0.02 0.18 0.17 90 1011.5
20190116145510 35 321 3.0 5.0 0.02 0.18 0.17 90 1011.6
20190116145009 35 303 3.0 5.0 0.02 0.17 0.17 90 1011.9
20190116144507 36 17 1.0 4.0 0.02 0.17 0.17 90 1011.7
20190116144009 36 23 1.0 4.0 0.02 0.17 0.17 90 1011.9
20190116143507 36 87 3.0 6.0 0.02 0.17 0.17 89 1011.9
20190116143007 36 87 3.0 6.0 0.02 0.17 0.17 89 1011.9
20190116142507 36 76 3.0 5.0 0.02 0.17 0.17 89 1011.7
20190116142008 36 47 1.0 5.0 0.02 0.17 0.16 89 1011.6
20190116141506 36 39 1.0 5.0 0.02 0.17 0.16 89 1011.4
20190116141006 37 102 0.0 7.0 0.02 0.17 0.16 88 1011.3
20190116140508 37 107 4.0 7.0 0.02 0.17 0.16 88 1011.3
20190116140006 37 102 3.0 4.0 0.02 0.16 0.15 88 1011.2
20190116135506 37 353 1.0 4.0 0.03 0.16 0.15 88 1011.0
20190116135007 37 354 2.0 5.0 0.03 0.16 0.15 87 1010.9
20190116134506 37 298 2.0 11.0 0.03 0.16 0.15 88 1010.9
20190116134006 37 142 5.0 11.0 0.03 0.15 0.14 88 1010.7
20190116133507 37 39 0.0 4.0 0.03 0.15 0.14 87 1010.8
20190116133010 37 37 2.0 3.0 0.03 0.15 0.14 87 1010.7
20190116132506 37 11 2.0 3.0 0.03 0.15 0.14 86 1010.6
20190116132007 37 11 1.0 5.0 0.03 0.15 0.14 86 1010.3
20190116131505 38 17 1.0 5.0 0.02 0.14 0.13 86 1010.3
20190116131005 38 73 1.0 5.0 0.02 0.14 0.13 85 1010.2
20190116130505 38 234 2.0 9.0 0.03 0.14 0.13 85 1010.3
20190116130005 38 224 4.0 9.0 0.02 0.13 0.13 85 1010.2
20190116125505 38 227 2.0 10.0 0.02 0.13 0.12 85 1010.2
20190116125006 38 189 5.0 10.0 0.02 0.13 0.12 84 1010.1
20190116124505 38 231 4.0 9.0 0.02 0.13 0.12 84 1010.1
20190116124004 0 179 5.0 12.0 0.01 0.12 0.11 1010.1
20190116123505 0 82 4.0 12.0 0.01 0.12 0.11 1010.1
20190116123005 0 182 4.0 9.0 0.01 0.12 0.11 1010.0
20190116122504 38 214 3.0 12.0 0.01 0.12 0.11 86 1010.0
20190116122004 38 238 7.0 15.0 0.02 0.12 0.11 86 1009.9
20190116121508 37 254 6.0 15.0 0.02 0.12 0.11 87 1009.9
20190116121004 37 255 9.0 14.0 0.02 0.12 0.11 87 1009.8
20190116120504 37 278 5.0 9.0 0.02 0.11 0.10 89 1009.6
20190116120003 36 0.0 0.0 0.02 0.11 0.10 90 1009.8
20190116115505 0 0.0 0.0 0.02 0.11 0.10 1009.8
20190116115004 35 310 2.0 4.0 0.02 0.11 0.10 91 1009.9
20190116114504 35 310 2.0 4.0 0.03 0.11 0.10 91 1009.9
20190116114003 35 326 3.0 4.0 0.03 0.11 0.10 91 1010.1
20190116113502 35 299 1.0 9.0 0.04 0.11 0.10 90 1010.0
20190116113001 35 300 6.0 9.0 0.05 0.11 0.10 90 1010.1
20190116112502 35 303 4.0 6.0 0.06 0.11 0.10 90 1010.1
20190116112000 35 345 5.0 6.0 0.06 0.10 0.09 90 1010.0
20190116111500 35 279 4.0 4.0 0.06 0.10 0.09 90 1010.2
20190116111001 35 13 2.0 4.0 0.06 0.10 0.09 89 1009.9
20190116110501 36 31 2.0 4.0 0.06 0.09 0.09 89 1009.9
20190116110001 36 54 2.0 4.0 0.06 0.09 0.09 89 1009.9
20190116105501 36 78 3.0 4.0 0.06 0.09 0.09 89 1010.0
20190116105000 36 89 2.0 4.0 0.06 0.09 0.08 89 1010.1
20190116104459 36 58 1.0 10.0 0.05 0.08 0.07 88 1010.2
20190116104000 37 45 4.0 10.0 0.06 0.08 0.07 88 1010.1
20190116103501 37 71 6.0 17.0 0.06 0.07 0.06 88 1010.0
20190116103000 37 240 6.0 17.0 0.05 0.06 0.06 89 1010.0
20190116102459 37 235 7.0 15.0 0.04 0.06 0.05 90 1010.0
20190116101959 36 142 6.0 15.0 0.04 0.05 0.04 90 1010.1
20190116101500 37 73 9.0 14.0 0.04 0.05 0.04 92 1010.0
20190116100958 36 192 10.0 15.0 0.03 0.04 0.03 93 1009.9
20190116100458 36 228 7.0 17.0 0.03 0.04 0.03 93 1009.6
20190116100001 35 235 11.0 17.0 0.03 0.04 0.03 93 1009.6
20190116095501 35 35 1.0 3.0 0.02 0.03 0.02 93 1009.6
20190116094958 35 31 1.0 5.0 0.02 0.03 0.02 93 1009.5
20190116094502 36 134 4.0 6.0 0.02 0.03 0.02 94 1009.4
20190116094000 36 271 2.0 13.0 0.02 0.02 0.02 94 1009.2
20190116093457 36 282 8.0 13.0 0.01 0.02 0.01 94 1009.1
20190116092958 36 262 6.0 13.0 0.01 0.02 0.01 94 1009.2
20190116092457 36 235 7.0 21.0 0.01 0.02 0.01 94 1009.2
20190116091958 36 265 9.0 21.0 0.00 0.01 0.00 94 1009.1
20190116091456 35 237 11.0 14.0 0.00 0.01 0.00 95 1009.2
20190116090958 35 241 4.0 13.0 0.00 0.01 0.00 94 1009.1
20190116090457 34 243 0.0 0.0 0.00 0.01 0.00 94 1008.9
20190116085958 34 89 0.0 0.0 0.00 0.01 0.00 94 1009.1
20190116085457 34 157 0.0 0.0 0.00 0.01 0.00 94 1009.1
20190116084958 34 189 0.0 0.0 0.00 0.01 0.00 94 1009.2
20190116084457 34 175 0.0 0.0 0.00 0.01 0.00 94 1009.1
20190116083958 34 155 0.0 0.0 0.00 0.01 0.00 94 1009.1
20190116083457 33 172 0.0 0.0 0.00 0.01 0.00 95 1009.1
20190116082955 33 185 0.0 0.0 0.00 0.01 0.00 94 1008.9
20190116082458 33 235 0.0 0.0 0.00 0.01 0.00 94 1008.8
20190116081957 33 80 0.0 0.0 0.00 0.01 0.00 94 1009.1
20190116081458 33 80 0.0 0.0 0.00 0.01 0.00 94 1008.8
20190116080956 33 80 0.0 0.0 0.00 0.01 0.00 94 1008.7
20190116080454 33 80 0.0 0.0 0.00 0.01 0.00 94 1008.7
20190116075957 33 80 0.0 0.0 0.00 0.01 0.01 94 1008.8
20190116075455 33 80 0.0 0.0 0.00 0.01 0.01 94 1008.7
20190116074955 33 80 0.0 0.0 0.00 0.01 0.01 94 1008.6
20190116074455 33 80 0.0 0.0 0.00 0.01 0.01 94 1008.4
20190116073956 33 80 0.0 0.0 0.00 0.01 0.01 94 1008.5
20190116073454 33 80 0.0 0.0 0.00 0.01 0.01 94 1008.5
20190116072954 33 80 0.0 0.0 0.00 0.01 0.01 94 1008.9
20190116072454 33 80 0.0 0.0 0.00 0.01 0.01 94 1008.7
20190116071955 33 80 0.0 0.0 0.00 0.01 0.01 94 1008.6
20190116071455 33 80 0.0 0.0 0.00 0.01 0.01 94 1008.5
20190116070954 33 80 0.0 0.0 0.00 0.01 0.01 94 1008.6
20190116070454 33 80 0.0 0.0 0.00 0.01 0.01 94 1008.6